Regional Weather Roundup
Issued by NWS

Home | Current Version | Previous Version | Graphics & Text | Print | Product List | Glossary On
Versions: 1 2 3 4 5 6 7 8 9 10 11 12 13 14 15 16 17 18 19 20 21 22 23 24 25 26 27 28 29 30 31 32 33 34 35 36 37 38 39 40 41 42 43 44 45 46 47 48 49 50
000
ASUS45 KBOU 140807
RWRCO

WEATHER ROUNDUP FOR COLORADO
NATIONAL WEATHER SERVICE DENVER/BOULDER CO
100 AM MST SUN FEB 14 2016

NOTE: "FAIR" INDICATES FEW OR NO CLOUDS BELOW 12000 FEET WITH NO
SIGNIFICANT WEATHER AND/OR OBSTRUCTIONS TO VISIBILITY.

COZ001>005-013-030-031-140900-
...NORTHWEST COLORADO...

CITY           SKY/WX    TMP DP  RH WIND       PRES   REMARKS
CRAIG          FAIR       8   4  83 CALM      30.22F
HAYDEN         FAIR      21  12  68 SE3       30.20F
MEEKER         FAIR      15  10  80 NE5       30.21F WCI   8
MOUNT WERNER   NOT AVBL
STEAMBOAT SPGS MOCLDY    21  14  75 SE6       30.20F WCI  14
WALDEN         FAIR      28  12  50 S8        30.15F WCI  20
$$

COZ006>008-011-140900-
...WEST CENTRAL VALLEYS...

CITY           SKY/WX    TMP DP  RH WIND       PRES   REMARKS
GRAND JUNCTION FAIR      26  25  96 CALM      30.20F
MONTROSE       FAIR      28  24  85 SE6       30.25R WCI  22
EAGLE          FAIR      25  21  86 E7        30.24S WCI  17
RIFLE          FAIR      24  19  81 CALM      30.23F
DELTA          FAIR      32  28  85 NE6       30.24S WCI  27
NUCLA          FAIR      32  25  74 E3        30.26R
$$

COZ017>023-064>068-140900-
...SOUTHWEST COLORADO...

CITY           SKY/WX    TMP DP  RH WIND       PRES   REMARKS
DURANGO        FAIR      25  17  72 E6        30.15S WCI  18
CORTEZ         FAIR      28  23  81 E8        30.19F WCI  20
PAGOSA SPRINGS FAIR      27  19  71 CALM      30.17F
TELLURIDE      NOT AVBL
WOLF CREEK PAS FAIR      27 -11  18 NW6       30.30F WCI  20
$$

COZ009-010-012-014-032>034-037-058>063-140900-
...CENTRAL COLORADO...

CITY           SKY/WX    TMP DP  RH WIND       PRES   REMARKS
ASPEN          FAIR      20  11  68 S6        30.20F WCI  12
BUENA VISTA    FAIR      37   7  28 NW14G20   30.12F
COPPER MTN     FAIR      23   5  46 W9        30.23S WCI  13
BERTHOUD PASS  FAIR      12   1  62 NW26      30.19F WCI  -8
COTTONWOOD PAS FAIR      36   1  23 N3G30     30.14S
GUNNISON       FAIR       1 -15  46 NE5       30.27F WCI  -8
KREMMLING      FAIR      32  14  47 N6        30.22S WCI  26
LEADVILLE      FAIR      25   7  46 N9        30.20F WCI  15
MONARCH PASS   FAIR      21   7  53 MISG      30.31F
SALIDA         NOT AVBL
SUNLIGHT       FAIR      25  16  68 CALM        N/A
WILKERSON PASS FAIR      27   0  31 W15G30    30.14S WCI  15
$$

COZ069>075-140900-
...SAN LUIS VALLEY/SANGRE DE CRISTO MOUNTAINS...

CITY           SKY/WX    TMP DP  RH WIND       PRES   REMARKS
ALAMOSA        FAIR      28  20  71 W6        30.15F WCI  22
LA VETA PASS   FAIR      32   7  34 MISG      30.15S
SAGUACHE       FAIR      28  18  64 N9        30.17S WCI  20
$$

COZ035-036-038>040-140900-
...NORTHERN COLORADO FRONT RANGE...

CITY           SKY/WX    TMP DP  RH WIND       PRES   REMARKS
DENVER INTL AP FAIR      30  25  81 E10       30.02S WCI  21
DMNS CITY PARK   N/A     35  25  68 SE14      30.05R WCI  25
AURORA         PTCLDY    31  26  81 SE10      30.05R WCI  23
FRONT RANGE AP   N/A     32  28  86 E10       30.04S WCI  24
ERIE MUNI ARPT FAIR      34  26  72 S6G16     30.03R WCI  29
BOULDER MUN AP FAIR      37  23  56 E12G17    30.01R
CENTENNIAL     FAIR      34  24  67 SE7       30.05S WCI  28
BROOMFIELD     FAIR      34  27  75 S7        30.04R WCI  28
FORT COLLINS   FAIR      41  19  42 SW5       29.99F
LONGMONT       FAIR      37  27  67 S5        30.02R
$$

COZ041-046-047-076>085-087-088-140900-
...PIKES PEAK/PALMER DIVIDE AND SOUTHERN FOOTHILLS...

CITY           SKY/WX    TMP DP  RH WIND       PRES   REMARKS
COLO. SPRINGS  FAIR      37  18  46 SW9       30.05R
A. F. ACADEMY  FAIR      33  17  50 NE9       30.04R WCI  26
SCHRIEVER AFB  FAIR      32  21  62 N15G23    30.05S WCI  22
ELLICOTT       FAIR     N/A N/A N/A N12       30.04S
FALCON         FAIR      30  18  61 N10       30.06F WCI  21
FORT CARSON    FAIR      39  17  41 NE8       30.04R
LIMON          FAIR      28  25  88 SW7       30.07R WCI  21
MONUMENT HILL  FAIR      27  19  74 SE6       30.08F WCI  20
TRINIDAD       FAIR      34  12  40 W10       30.03R WCI  26
$$

COZ042>045-048>051-090-091-140900-
...NORTHEAST COLORADO...

CITY           SKY/WX    TMP DP  RH WIND       PRES   REMARKS
GREELEY ARPT   FAIR      39  23  52 N24G30    29.99F
AKRON          FAIR      30  24  78 N12       30.04F WCI  20
BURLINGTON     FAIR      33  26  75 NW12      30.04F WCI  24
WRAY           FAIR      35  28  73 NW10      30.04S WCI  28
STERLING       FAIR      34  27  75 CALM      30.04R
HOLYOKE        FAIR      36  28  75 NW12      30.02F
FORT MORGAN    FAIR      36  24  63 N20       30.04F
$$

COZ086-089-092>099-140900-
...SOUTHEAST COLORADO...

CITY           SKY/WX    TMP DP  RH WIND       PRES   REMARKS
PUEBLO         FAIR      43  23  45 E8        30.05R
LA JUNTA       FAIR      37  30  75 NE9       30.07R
LAMAR          FAIR      37  29  72 N5        30.04S
SPRINGFIELD      N/A     31  28  89 N25G39    30.02R WCI  17
$$



USA.gov is the U.S. government's official web portal to all federal, state and local government web resources and services.